Location: Prague
(50.0830°N, 14.4670°E)
Time: 01:01:18
(UTC+01:00)

ITUPSAT 1 - Pass Details

Date: 01 December 2021
Orbit: 700 x 713 km, 98.6° (Epoch: 25 January)

Event Time Altitude Azimuth Distance (km) Brightness Sun altitude
Rises 06:07:21 0° 145° (SE) 3,088 ? -14.1°
Reaches altitude 10° 06:09:39 10° 140° (SE) 2,176 ? -13.7°
Maximum altitude 06:14:12 46° 68° (ENE) 949 ? -13.0°
Drops below altitude 10° 06:18:48 10° 355° (N) 2,199 ? -12.3°
Sets 06:21:08 0° 350° (N) 3,124 ? -12.0°
